Lapse_Rate
7.4 7.8 8.3 9.6 9.6 9.5 9.6 9.7 9.7 9.7 9.7 9.7 9.7 9.5 9.0 8.7 9.2 8.2 7.7 7.3 6.9 6.5 6.2 6.6 6.6 6.6 6.6 6.7 6.8 6.8 6.7 6.7 6.6 6.5 6.4 6.3 6.4 6.3 6.2 6.4 6.6 6.7 6.8 6.7
7.8 8.0 8.8 9.5 9.2 8.9 9.5 9.7 9.7 9.7 9.6 9.6 9.7 9.6 9.4 8.9 9.1 8.7 8.2 7.6 7.3 7.1 6.7 6.6 6.8 6.7 6.6 6.6 6.6 6.6 6.7 6.7 6.6 6.6 6.5 6.5 6.4 6.3 6.1 6.2 6.1 6.5 6.6 6.7
8.3 8.8 8.6 8.4 8.4 9.0 9.6 9.7 9.7 9.7 9.6 9.6 9.7 9.7 9.2 8.6 8.8 9.2 8.6 8.1 7.8 7.4 7.1 7.1 7.3 6.9 6.7 6.6 6.5 6.4 6.3 6.3 6.4 6.4 6.4 6.3 6.1 6.1 6.1 6.2 6.4 6.5 6.6 6.6
8.2 8.6 8.3 8.1 8.8 9.2 9.6 9.5 9.6 9.7 9.7 9.6 9.4 9.9 9.6 9.4 8.6 8.8 8.6 8.4 8.2 7.8 7.3 7.5 7.6 7.5 7.2 6.9 6.7 6.5 6.3 6.3 6.3 6.4 6.3 6.2 6.0 6.3 5.9 5.4 6.0 5.9 6.1 6.0
8.2 8.4 8.1 8.2 8.7 9.2 9.6 9.0 9.2 9.6 9.7 9.6 9.6 9.7 9.5 9.6 9.5 9.2 8.9 8.7 8.5 8.1 7.6 7.3 7.9 7.7 7.5 7.2 6.8 6.8 6.9 6.8 6.6 6.7 6.6 6.4 6.3 6.3 5.3 5.4 6.0 6.1 6.0 6.1
9.1 8.2 8.1 8.3 9.3 9.3 9.3 8.6 8.6 9.0 9.6 9.8 9.7 9.7 9.5 9.6 9.6 9.6 9.5 8.9 8.5 8.3 8.0 7.6 7.2 7.8 7.6 7.4 7.3 7.2 6.9 6.7 6.6 6.5 6.5 6.4 6.2 6.1 5.9 5.8 6.0 5.2 5.5 5.3
7.9 8.1 8.4 8.6 9.2 8.4 8.4 8.9 9.6 9.8 9.9 9.9 9.6 9.7 9.7 9.6 9.6 9.2 9.6 9.4 8.8 8.3 8.0 7.9 7.6 7.5 7.9 7.7 7.6 7.5 7.7 7.5 7.1 6.9 6.9 6.9 6.8 6.7 6.6 6.5 6.3 6.3 5.4 5.5
8.4 8.7 8.2 8.1 8.5 8.6 8.5 9.6 9.7 9.4 9.8 9.8 9.2 9.6 9.6 9.4 8.6 8.7 8.7 9.3 9.3 8.7 8.4 8.1 7.7 7.5 7.9 7.8 7.7 7.5 7.3 7.2 7.1 7.0 6.9 6.8 6.7 6.6 6.6 6.6 6.7 6.6 6.6 6.4
9.5 9.5 9.2 8.5 8.5 9.5 9.3 9.5 9.6 9.7 9.6 9.7 9.6 9.5 9.5 8.7 8.7 8.4 8.5 8.9 9.4 9.2 9.0 8.4 8.3 7.8 7.4 7.7 7.5 7.2 7.0 7.0 7.0 6.9 6.8 6.6 6.4 6.2 6.1 6.2 6.2 6.2 6.3 6.3
9.6 9.7 9.6 9.3 8.8 9.1 9.4 9.4 9.6 9.6 9.7 9.6 9.7 9.6 9.7 9.0 8.8 8.2 8.2 8.5 9.2 9.3 9.0 8.8 8.4 8.2 7.9 7.5 7.3 7.4 7.1 7.0 7.0 6.8 6.7 6.5 6.4 6.3 6.1 6.0 6.0 6.2 6.1 6.1
8.9 9.3 9.6 9.4 8.1 8.8 8.5 8.9 9.6 9.6 9.7 9.8 9.8 9.6 9.0 8.7 8.4 8.3 8.2 8.1 8.3 8.5 8.6 9.0 8.7 8.8 7.8 7.9 7.5 7.1 7.0 7.5 7.1 7.1 6.9 6.6 6.3 6.3 6.1 6.0 5.9 5.8 5.8 5.7
8.4 9.2 9.3 9.5 8.7 8.4 9.6 9.6 9.6 9.6 9.5 9.6 9.5 9.4 9.0 8.6 8.5 8.2 8.5 8.1 8.0 8.1 8.5 9.0 8.5 8.4 7.4 8.0 7.8 7.0 6.7 6.3 6.7 6.8 6.7 6.5 6.4 6.4 6.2 6.3 6.2 5.9 5.8 5.8
8.4 8.7 9.5 9.6 9.3 8.6 9.0 9.6 9.6 9.6 9.7 9.7 9.8 9.5 9.0 8.9 8.7 8.4 8.3 8.4 7.9 8.0 8.4 8.9 7.8 7.9 7.4 7.4 7.1 7.0 6.6 6.4 6.4 7.0 6.7 6.6 6.5 6.3 6.4 6.3 6.1 6.0 6.0 5.9
8.4 9.0 8.6 9.6 9.5 9.4 8.6 8.8 9.6 9.6 9.6 9.6 9.6 9.2 9.0 8.8 8.5 8.3 8.1 8.0 8.0 7.5 7.8 7.9 7.4 7.4 7.3 6.9 7.5 7.5 7.8 6.3 7.0 7.0 6.9 6.6 6.6 6.6 6.5 6.3 6.3 6.2 6.2 6.2
8.3 8.2 8.6 9.1 9.6 9.6 9.6 9.5 9.6 9.6 9.6 9.6 9.7 9.6 9.5 8.4 8.0 8.3 8.4 8.1 8.1 7.8 7.4 7.3 7.0 7.0 7.5 7.4 7.9 7.7 7.3 7.0 7.0 7.0 7.0 6.6 6.7 6.5 6.5 6.4 6.4 6.3 6.3 6.3
8.2 8.4 8.4 9.5 9.6 9.6 9.7 9.6 9.6 9.6 9.6 9.6 9.6 9.6 9.2 8.2 7.9 7.7 7.4 8.0 7.9 8.1 7.3 7.1 7.0 7.0 7.1 6.7 7.3 7.6 7.2 7.4 7.4 7.1 7.0 6.9 6.8 6.7 6.5 6.4 6.3 6.3 6.4 6.1
8.5 8.7 8.6 9.3 9.6 9.6 9.6 9.6 9.6 9.6 9.6 9.6 9.6 9.6 8.8 8.1 7.7 7.6 7.6 6.9 7.1 7.5 7.6 7.5 7.4 7.2 7.0 7.2 7.4 7.3 7.3 7.2 7.1 7.0 6.8 6.7 6.7 6.6 6.5 6.6 6.7 6.5 6.2 6.0
8.5 8.5 9.0 9.4 9.6 9.9 9.6 9.6 9.6 9.6 9.6 9.6 9.5 8.8 8.2 8.0 8.1 7.8 7.6 6.7 6.1 6.4 7.2 7.2 7.1 7.1 6.9 6.7 6.8 6.8 6.7 6.7 6.8 6.7 6.8 6.6 6.6 6.7 6.8 6.6 6.5 6.5 6.2 6.2
9.2 8.7 8.8 9.5 9.5 9.6 9.3 9.1 9.4 9.6 9.5 8.9 8.9 8.0 7.5 7.9 7.9 7.2 6.9 6.7 6.4 6.5 6.8 6.7 6.4 6.4 6.4 6.5 6.6 6.6 6.6 6.8 6.7 6.8 6.8 6.8 6.7 6.6 6.6 6.6 6.5 6.3 6.3 6.2
8.9 8.7 9.2 9.5 9.6 9.7 9.5 9.1 9.1 9.3 9.3 8.6 8.4 7.8 7.4 7.1 7.7 6.1 6.7 6.8 6.6 6.6 6.5 6.3 6.2 6.3 6.4 6.4 6.5 6.7 6.8 6.8 6.8 6.7 6.5 6.6 6.6 6.6 6.5 6.3 6.4 6.3 6.2 6.1
8.7 9.0 9.0 9.5 9.4 9.4 8.9 8.6 8.8 9.0 9.2 8.6 8.1 7.7 7.6 7.3 7.3 7.2 6.7 6.7 6.7 6.5 6.5 6.4 6.4 6.5 6.6 6.7 6.8 6.7 6.7 6.7 6.6 6.6 6.6 6.5 6.4 6.2 6.4 6.5 6.4 6.3 6.1 6.0
8.7 8.8 9.2 9.4 9.5 9.1 8.1 8.2 8.8 8.8 8.2 7.8 7.8 7.6 7.3 7.3 7.2 7.0 7.0 6.8 6.6 6.5 6.5 6.4 6.4 6.5 6.6 6.6 6.7 6.5 6.5 6.5 6.4 6.4 6.4 6.3 6.3 6.4 6.6 6.7 6.4 6.1 6.1 5.9
9.2 9.3 9.4 9.3 9.1 8.6 8.2 8.1 8.3 8.4 8.2 8.0 7.6 7.2 7.4 7.3 7.1 7.1 7.0 6.7 6.6 6.5 6.4 6.5 6.6 6.4 6.4 6.4 6.5 6.5 6.4 6.4 6.4 6.4 6.3 6.2 6.5 6.8 6.9 6.7 6.5 6.2 5.9 5.9
8.9 8.8 9.1 8.7 7.9 8.0 8.1 8.1 8.0 8.1 8.0 7.8 7.1 7.4 7.0 6.2 6.5 6.9 6.7 6.5 6.4 6.4 6.4 6.3 6.4 6.4 6.5 6.5 6.3 6.2 6.3 6.4 6.4 6.4 6.4 6.6 6.7 6.8 6.7 6.5 6.2 5.9 5.6 5.5
9.2 8.9 8.7 8.0 7.8 8.3 8.1 8.0 7.9 7.9 7.7 7.6 6.8 6.4 6.0 6.2 6.6 6.5 6.4 6.4 6.3 6.3 6.3 6.3 6.5 6.4 6.2 6.3 6.4 6.4 6.5 6.4 6.4 6.5 6.6 6.5 6.7 6.6 6.4 6.3 5.9 5.5 5.7 5.5
8.5 8.9 8.3 8.4 8.5 7.9 8.0 8.0 7.9 7.7 7.5 7.3 7.2 6.9 6.6 6.5 6.4 6.2 6.5 6.5 6.4 6.4 6.5 6.5 6.2 6.3 6.3 6.5 6.5 6.4 6.4 6.6 6.6 6.6 6.5 6.7 6.5 6.4 6.0 6.1 6.0 5.7 5.6 5.4
Wind_Speed
14 11 12 16 12 9 11 3 8 10 7 8 11 18 14 14 16 16 16 15 15 16 14 16 16 15 14 14 13 13 12 10 8 9 8 8 8 7 7 9 10 7 9 10
9 15 15 6 2 5 8 8 9 7 7 10 7 14 16 14 14 17 17 17 16 16 17 17 16 16 15 15 14 14 13 12 11 9 7 6 5 6 4 3 5 7 10 12
15 17 13 6 11 11 12 11 11 8 10 12 4 12 15 16 14 16 16 17 17 17 17 17 17 16 16 15 15 15 14 13 12 11 7 6 6 7 8 8 6 7 10 10
15 5 9 12 15 16 16 10 5 7 7 13 13 9 16 18 15 15 17 17 16 17 16 17 17 17 17 16 15 14 14 13 11 11 9 8 7 3 5 7 1 6 6 9
16 11 15 16 15 12 6 2 7 11 12 16 11 9 18 18 18 19 17 18 19 17 18 18 18 17 17 16 15 15 13 13 12 11 11 8 9 7 6 2 2 8 7 10
15 13 16 17 15 8 4 5 6 9 13 12 10 9 14 17 16 16 22 22 19 19 18 18 17 18 16 15 15 14 13 11 13 12 12 11 9 7 5 4 5 6 6 5
18 12 13 14 12 8 9 12 8 7 9 8 10 7 8 4 9 5 7 23 22 20 19 18 17 17 16 16 15 13 13 13 13 14 13 11 10 8 7 5 5 4 6 8
16 16 21 13 14 11 13 18 10 4 11 10 6 7 5 8 3 3 6 13 22 21 20 19 19 17 17 17 15 14 14 13 13 13 13 10 10 8 8 10 6 5 7 7
17 18 22 18 19 16 14 14 12 6 4 5 9 5 3 7 5 2 7 13 15 20 20 20 20 19 17 17 17 16 14 14 13 13 11 11 10 9 7 4 3 6 4 7
8 13 20 14 15 15 11 11 7 6 5 6 7 2 3 6 1 4 5 9 14 19 18 19 17 19 17 16 15 15 15 14 14 13 11 10 10 10 8 4 6 3 4 6
20 12 19 16 15 15 13 11 11 14 5 5 6 8 11 7 4 4 1 3 6 8 14 16 17 16 17 16 15 14 14 13 13 12 11 10 9 7 6 6 5 5 4 6
22 10 13 20 18 20 19 19 16 10 9 8 8 11 14 10 5 2 4 3 6 11 14 12 12 13 12 12 12 12 12 12 11 9 9 8 8 6 5 6 7 6 6 8
19 16 14 16 9 11 14 14 18 15 9 5 7 7 8 8 6 1 5 5 5 6 13 11 9 9 9 8 9 10 8 8 8 6 7 7 7 7 6 7 8 8 9 11
20 17 19 16 15 16 19 21 18 13 9 12 13 12 12 10 4 4 1 3 8 9 4 6 8 3 6 7 6 5 6 5 4 3 4 5 5 6 8 8 9 10 11 12
18 22 20 21 17 20 20 21 16 17 14 14 2 6 11 11 5 3 2 3 4 5 7 9 9 7 5 6 7 5 3 6 4 4 2 6 7 8 10 11 11 12 12 13
21 15 20 21 23 10 12 21 20 19 16 14 16 8 15 10 4 3 1 2 1 4 7 5 6 7 6 7 5 4 3 4 3 4 6 8 9 10 11 11 12 12 13 13
19 17 16 20 19 16 18 16 15 14 14 16 12 6 11 8 3 3 5 2 0 3 5 6 6 6 8 8 3 5 4 4 5 6 8 10 10 12 12 13 13 13 13 14
20 16 12 14 16 22 12 19 19 16 14 7 4 8 9 7 7 6 1 2 6 9 10 9 9 10 7 7 6 5 6 6 8 9 10 11 11 13 13 14 14 13 13 13
22 18 16 14 18 9 5 7 13 11 12 8 6 9 7 8 11 7 9 10 12 13 11 9 8 8 7 7 7 7 7 8 9 10 10 11 11 13 14 14 14 14 14 14
14 13 14 13 18 20 15 17 9 6 11 13 9 11 9 8 10 11 12 13 13 12 9 8 7 8 7 7 7 6 7 8 9 10 11 12 13 14 15 14 14 14 14 15
14 13 17 13 16 7 12 15 11 13 3 15 11 8 9 7 8 15 13 12 12 10 8 7 7 6 5 6 6 7 8 9 10 11 13 13 14 14 14 13 12 12 14 14
15 14 14 16 17 10 14 15 12 9 10 10 9 9 12 13 16 14 13 12 11 9 7 6 5 5 6 7 8 9 9 11 12 13 14 14 14 12 12 14 13 14 13 13
17 16 14 2 3 16 16 11 11 10 10 8 8 11 14 14 14 14 12 10 8 7 6 5 6 6 7 11 11 11 11 10 11 13 13 13 14 14 14 13 14 11 10 9
5 2 4 8 8 13 13 10 9 7 9 9 11 13 14 14 13 12 9 8 7 7 7 7 8 8 8 9 10 10 9 10 13 12 13 13 13 12 13 11 12 7 9 12
9 7 8 14 12 13 10 10 12 12 13 14 12 12 13 13 11 10 8 7 7 7 6 6 5 6 7 7 8 9 9 12 12 13 13 14 12 13 13 10 8 11 10 7
6 10 10 9 18 3 15 14 15 16 16 14 15 14 12 10 8 10 9 7 7 6 5 5 7 9 9 10 10 8 10 11 12 12 11 11 12 12 12 11 12 9 4 8
Wind_Direction
203 222 219 222 229 1 323 191 135 112 133 244 175 137 155 172 168 168 167 171 178 177 175 170 180 176 177 181 185 190 199 193 207 208 221 218 238 224 231 216 223 252 249 253
185 230 225 234 87 248 246 246 164 133 154 251 151 153 150 178 188 168 172 173 180 178 172 175 183 181 188 183 189 193 201 203 206 211 224 261 277 270 284 262 259 247 249 253
224 206 232 185 198 223 228 230 166 215 181 244 166 165 161 176 191 168 182 174 181 174 174 180 182 189 191 191 192 194 200 201 209 232 210 221 251 250 250 235 223 233 236 249
230 178 180 204 223 222 221 207 337 227 198 220 204 228 178 171 188 189 188 180 187 171 174 176 184 191 197 198 193 198 198 204 206 212 238 226 261 288 276 244 16 333 285 282
211 194 204 208 225 211 290 130 222 240 229 256 189 269 172 177 184 189 200 188 188 181 178 175 184 187 199 196 194 192 192 199 212 199 235 223 225 261 248 22 168 223 244 226
220 204 199 214 220 210 159 223 227 242 252 225 240 227 149 185 195 201 186 185 195 183 184 175 180 176 192 192 193 186 185 196 200 209 209 230 263 263 297 14 341 285 347 314
224 203 216 233 182 195 213 206 202 216 221 249 171 191 274 38 77 354 268 179 182 186 190 184 176 179 187 192 191 182 180 198 205 208 216 218 225 225 231 237 266 317 303 354
207 204 207 195 211 186 218 230 251 181 216 184 155 236 235 50 73 177 267 258 177 187 187 188 179 182 187 191 187 193 181 196 200 205 207 210 213 215 213 210 250 301 321 320
195 227 187 195 222 211 195 242 278 295 250 297 169 176 228 167 234 239 238 233 202 180 193 188 190 181 186 192 188 192 183 196 196 198 196 201 200 226 263 322 264 266 332 331
249 214 177 191 215 215 269 214 216 251 242 234 153 155 95 150 188 91 252 220 234 180 192 184 201 184 189 191 187 196 188 196 191 193 193 198 206 214 224 238 251 281 297 308
242 246 179 182 208 205 211 244 239 279 243 298 214 136 104 98 9 331 169 203 242 199 200 191 191 196 194 194 195 195 195 195 200 201 199 214 205 209 205 231 255 273 289 297
225 208 239 188 211 228 216 207 228 246 188 257 310 109 123 119 108 354 327 90 273 198 212 190 191 185 190 221 196 186 204 197 200 193 200 194 208 215 230 233 261 278 287 291
205 234 218 221 170 215 225 235 222 223 263 208 240 122 128 124 128 96 313 310 167 237 219 180 174 179 163 210 200 206 189 193 181 174 202 210 220 224 249 272 285 288 286 282
204 214 238 218 202 202 210 234 235 219 205 233 212 148 179 135 68 98 200 249 300 176 263 193 154 151 208 191 176 153 168 149 155 192 224 247 266 286 291 297 289 281 280 285
208 223 224 249 244 207 193 218 208 228 239 256 322 238 92 102 76 50 358 318 269 263 204 229 166 174 195 156 146 132 142 114 231 25 305 306 315 304 295 287 283 286 289 290
207 217 230 238 242 233 248 190 209 213 233 241 256 266 101 105 166 213 243 292 242 250 226 168 111 147 173 118 132 132 159 83 31 327 319 314 307 300 291 284 281 280 283 292
209 219 214 233 229 237 234 243 234 230 221 242 247 250 118 131 90 355 317 231 228 115 124 122 134 136 108 168 118 64 49 360 340 330 321 317 311 302 293 287 286 285 291 291
213 220 225 229 230 229 240 235 236 237 239 216 205 93 88 99 91 63 357 127 116 104 116 128 121 97 100 80 61 33 11 358 342 328 320 316 311 308 308 303 296 295 295 296
202 204 220 224 236 219 157 237 241 210 218 181 173 126 146 125 126 97 94 99 100 95 87 90 97 97 76 56 32 13 357 347 328 325 326 320 316 313 311 307 311 313 300 294
222 209 226 206 243 226 214 181 189 194 221 176 168 166 170 170 219 127 118 113 106 98 98 96 87 79 61 38 15 354 349 331 344 337 325 325 323 318 314 310 303 298 292 290
216 211 222 222 217 216 109 132 150 189 160 149 170 165 162 183 87 126 125 115 108 103 94 93 77 66 51 32 3 356 345 349 337 328 327 319 318 317 302 306 306 304 300 296
202 201 220 232 234 200 160 155 180 105 121 134 158 161 119 121 130 135 124 124 118 104 90 62 60 48 41 27 1 347 348 349 344 335 324 322 312 312 313 313 311 311 304 303
210 209 226 319 208 121 149 116 114 133 132 144 146 134 133 144 136 131 134 122 106 90 74 39 26 25 19 24 3 350 349 340 336 321 316 314 315 314 313 313 315 309 300 296
177 312 200 158 124 124 122 113 118 121 121 126 131 141 153 141 131 125 117 100 86 67 46 32 20 20 9 5 349 349 8 348 323 320 316 307 304 313 307 312 295 302 307 326
179 161 139 101 123 121 119 121 124 121 118 120 127 135 117 122 127 127 109 88 79 64 38 37 27 358 349 343 2 347 357 348 330 323 312 316 330 317 312 310 326 313 315 344
172 170 176 191 159 106 131 126 125 124 124 119 118 114 114 120 119 110 87 76 63 55 33 20 17 356 358 352 334 4 350 330 330 326 327 331 313 314 317 333 310 284 259 302